Preview of NWS' New Version of Forecast
This preview is not operational and should not be used for support decisions.
Latest weather observations around

Augusta, Augusta State Airport (KAUG)

Using English Units (Switch to International System of Units)
Date/ Time (EST) Wind (mph) Vis. (mi) Weather Sky Cond. Temp (°F) Rel. Humidity Wind Chill (°F) Heat Index (°F) Pressure Precip. (in)
Air Dwpt 6 hour Altimeter (inHg) Sea level (inHg) 1 hr 3 hr 6 hr
Max Min
Feb 22 08:53 N 9 10 Mostly Clear FEW120 32 11     41% 24   30.64 30.65      
Feb 22 07:53 N 9 10 Mostly Clear FEW120 31 11     43% 23   30.64 30.65      
Feb 22 06:53 N 8 10 Cloudy OVC120 31 11     43% 23   30.62 30.63      
Feb 22 05:53 N 14 10 Clear CLR 32 11     41% 22   30.59 30.6      
Feb 22 04:53 N 8 10 Clear CLR 32 13     45% 25   30.58 30.58      
Feb 22 03:53 NNW 8 10 Clear CLR 33 17     51% 26   30.55 30.56      
Feb 22 02:53 N 9 10 Clear CLR 34 21     59% 27   30.52 30.53      
Feb 22 01:53 N 7 10 Clear CLR 36 21     54% 30   30.51 30.52      
Feb 22 00:53 NW 13 10 Clear CLR 39 22     50% 31   30.47 30.48      
Feb 21 23:53 NW 16 10 Mostly Cloudy BKN100 40 23     50% 31   30.42 30.43      
Feb 21 22:53 NW 11 10 Cloudy OVC095 43 25     49% 37   30.37 30.38      
Feb 21 21:53 WNW 10 10 Cloudy OVC090 46 31     55% 41   30.31 30.32      
Feb 21 20:53 WNW 9 10 Partly Cloudy SCT090 48 34     58% 44   30.28 30.29      
Feb 21 19:53 NW 15 10 Partly Cloudy SCT075 50 35     56% 45   30.23 30.24      
Feb 21 18:53 NW 13 10 Cloudy OVC070 54 41     61%     30.19 30.19      
Feb 21 17:53 WNW 15 10 Cloudy FEW030 OVC055 57 47     69%     30.13 30.14      
Feb 21 16:53 WNW 10 10 Cloudy BKN050 BKN060 OVC080 55 47     74%     30.07 30.07      
Feb 21 15:53 NNE 3 10 Clear CLR 52 46     80%     29.99 30      
Feb 21 14:53 3 10 Clear CLR 53 47     80%     29.97 29.98      
Feb 21 13:53 SSE 6 6 Fog/Mist SCT002 44 43     96% 41   29.99 30      
Feb 21 13:44 SE 3 3 Fog/Mist BKN002 43 43     100% 41   30        
Feb 21 13:40 SE 3 1 Fog/Mist VV002 43 43     100% 41   30        
Feb 21 12:53 SSE 6 0.25 Fog VV002 42 42     100% 38   30.02 30.02      
Feb 21 12:19 Calm 0.25 Fog VV002 41 41     100%     30.04        
Feb 21 12:12 3 0.5 Fog VV002 42 42     100% 40   30.04        
Feb 21 12:01 S 6 0.25 Fog VV002 41 41     100% 37   30.04        
Feb 21 11:53 S 3 0.5 Fog VV002 41 41     100% 39   30.05 30.06      
Feb 21 11:51 S 5 0.5 Fog VV002 41 41     100% 38   30.05        
Feb 21 10:53 SE 5 0.25 Fog VV002 39 39     100% 36   30.09 30.09      
Feb 21 09:53 S 3 0.25 Fog VV002 38 38     100% 36   30.11 30.11      
Feb 21 08:53 SSW 6 0.25 Fog VV002 36 36     100% 31   30.13 30.14      
Feb 21 07:53 SSW 5 0.25 Fog VV002 36 35     96% 32   30.13 30.14      
Feb 21 06:53 SSE 3 0.25 Fog VV002 35 34     96% 32   30.14 30.15      
Feb 21 05:53 Calm 0.25 Fog VV002 35 35     100%     30.16 30.18      
Feb 21 04:53 S 3 0.25 Fog VV002 36 35     96% 33   30.19 30.2      
Feb 21 03:53 Calm 0.25 Fog VV002 36 36     100%     30.19 30.2      
Feb 21 02:53 Calm 0.25 Fog VV003 36 35     96%     30.21 30.22      
Feb 21 01:53 Calm 0.25 Fog VV003 36 36     100%     30.25 30.26      
Feb 21 00:53 Calm 0.25 Fog VV002 36 36     100%     30.25 30.26     0
Feb 20 23:53 Calm 0.25 Fog VV002 36 36     100%     30.27 30.28      
Feb 20 22:53 N 3 0.25 Fog VV003 37 36     96% 35   30.26 30.27 0    
Feb 20 21:53 WNW 3 0.25 Fog VV002 36 36     100% 33   30.27 30.28      
Feb 20 20:53 Calm 0.25 Fog VV002 37 37     100%     30.27 30.28      
Feb 20 19:53 NNW 5 0.25 Fog VV002 37 37     100% 33   30.28 30.29      
Feb 20 18:53 NNW 6 0.25 Fog VV002 36 36     100% 31   30.28 30.29     0
Feb 20 17:53 NNW 6 0.25 Fog VV002 37 36     96% 32   30.27 30.28      
Feb 20 16:53 NNW 3 0.25 Fog VV002 38 37     97% 36   30.24 30.25      
Feb 20 15:53 Calm 0.25 Fog VV002 39 38     96%     30.25 30.26   0  
Feb 20 14:53 N 3 0.25 Fog VV002 39 38     96% 37   30.24 30.25      
Feb 20 14:46 N 3 0.25 Fog VV002 39 38     96% 37   30.24        
Feb 20 14:25 N 3 0.5 Fog OVC002 38 38     100% 36   30.24        
Feb 20 14:08 NNE 5 1.5 Fog/Mist OVC003 39 38     96% 36   30.24        
Feb 20 13:53 N 5 2.5 Fog/Mist OVC003 39 38     96% 36   30.24 30.25 0    
Feb 20 13:43 NNE 7 3 Fog/Mist OVC002 39 38     96% 34   30.24   0    
Feb 20 13:18 N 7 2 Fog/Mist OVC002 39 38     96% 34   30.24   0    
Feb 20 13:06 N 5 1.75 Light Rain and Fog/Mist OVC002 39 38     96% 36   30.24   0    
Feb 20 12:53 NNE 6 2 Light Rain and Fog/Mist OVC002 39 38     96% 35   30.24 30.25 0   0
Feb 20 12:35 NNW 6 1.75 Fog/Mist OVC003 39 38     96% 35   30.25   0    
Feb 20 11:53 N 5 3 Light Rain and Fog/Mist OVC003 39 39     100% 36   30.24 30.25 0    
Feb 20 11:25 N 5 4 Fog/Mist OVC003 39 38     96% 36   30.25   0    
Feb 20 11:10 NE 6 2.5 Fog/Mist OVC003 39 38     96% 35   30.24   0    
Feb 20 10:59 NE 5 3 Light Rain and Fog/Mist OVC003 39 38     96% 36   30.24   0    
Feb 20 10:53 NE 8 2.5 Light Rain and Fog/Mist OVC005 39 39     100% 33   30.24 30.25 0    
Feb 20 10:41 NNE 6 1.75 Light Rain and Fog/Mist OVC005 38 38     100% 33   30.26   0    
Feb 20 10:30 Calm 4 Fog/Mist BKN005 OVC009 39 38     96%     30.28   0    
Feb 20 10:21 NNE 6 2 Light Rain and Fog/Mist BKN005 OVC009 39 38     96% 35   30.27   0    
Feb 20 10:15 Calm 1.75 Fog/Mist BKN003 OVC009 38 38     100%     30.27        
Feb 20 10:02 NE 5 3 Fog/Mist BKN002 OVC010 38 38     100% 34   30.26        
Feb 20 09:49 NE 5 2 Fog/Mist OVC003 38 38     100% 34   30.25 30.26 0 0  
Feb 20 09:48 NE 5 2 Fog/Mist OVC003 37 37     100% 34   30.25   0    
Feb 20 09:39 NNE 6 0.75 Fog/Mist VV003 38 38     100% 33   30.26   0    
Feb 20 08:53 N 6 0.25 Light Rain and Fog VV003 36 36     100% 31   30.25 30.27 0    
Feb 20 07:53 N 6 0.25 Light Rain and Fog VV002 37 36     96% 32   30.26 30.27 0    
Feb 20 07:21 N 3 0.25 Fog VV003 37 37     100% 35   30.25        
Feb 20 07:10 Calm 1 Fog/Mist OVC003 37 36     96%     30.25        
Feb 20 06:53 N 5 0.25 Fog BKN003 OVC028 37 36     96% 33   30.25 30.26 0   0
Feb 20 06:35 N 5 0.5 Fog OVC028 37 37     100% 33   30.23   0    
Feb 20 05:52 Calm 0.75 Fog/Mist SCT002 OVC030 38 37     97%     30.22 30.23 0    
Feb 20 05:51 Calm 0.75 Fog/Mist SCT002 OVC030 37 37     100%     30.22   0    
Feb 20 05:41 E 3 1.5 Fog/Mist BKN003 OVC030 38 37     97% 36   30.21   0    
Feb 20 05:07 NE 3 3 Fog/Mist OVC003 37 37     100% 35   30.21        
Feb 20 05:02 NNE 5 1.75 Fog/Mist OVC003 37 37     100% 33   30.21        
Feb 20 04:53 N 3 2.5 Fog/Mist OVC003 36 36     100% 33   30.22 30.22      
Feb 20 04:37 N 6 3 Fog/Mist OVC003 37 36     96% 32   30.22        
Feb 20 04:30 NNE 5 1.75 Fog/Mist OVC003 37 37     100% 33   30.21        
Feb 20 04:18 Calm 2 Fog/Mist OVC003 37 37     100%     30.22        
Feb 20 03:53 Calm 4 Fog/Mist OVC003 38 37     97%     30.2 30.21   0  
Feb 20 03:15 SSW 3 8 Cloudy BKN003 OVC031 39 37     93% 37   30.22        
Feb 20 03:05 Calm 7 Cloudy SCT003 BKN031 OVC043 38 37     97%     30.21        
Feb 20 02:53 Calm 8 Cloudy SCT032 OVC044 39 38     96%     30.2 30.21      
Feb 20 01:53 Calm 10 Cloudy FEW055 OVC075 39 37     93%     30.23 30.24 0    
Feb 20 00:53 SSW 3 10 Cloudy OVC070 39 37     93% 37   30.23 30.24      
Feb 19 23:53 S 7 10 Cloudy SCT045 OVC080 40 37     89% 35   30.22 30.23      
Feb 19 22:53 Calm 10 Cloudy FEW028 OVC095 40 36     86%     30.24 30.25      
Feb 19 22:16 5 10 Partly Cloudy SCT026 SCT050 40 36     86% 37   30.23        
Feb 19 21:53 7 10 Cloudy BKN026 OVC060 41 36     82% 36   30.23 30.24      
Feb 19 21:45 SSW 8 10 Cloudy BKN027 BKN032 OVC055 41 36     82% 36   30.23        
Feb 19 20:53 S 9 10 Cloudy OVC031 40 36     86% 34   30.24 30.25      
Feb 19 19:53 S 7 10 Cloudy OVC039 39 35     86% 34   30.25 30.27      
Feb 19 18:53 S 9 10 Cloudy OVC042 39 35     86% 33   30.28 30.29      
Feb 19 17:53 S 8 10 Cloudy OVC055 39 34     82% 33   30.31 30.32      
Feb 19 16:53 S 8 10 Partly Cloudy SCT085 39 32     76% 33   30.32 30.34      
Feb 19 15:53 S 13 10 Mostly Cloudy BKN110 41 30     65% 34   30.33 30.35      
Feb 19 14:53 S 10 10 Mostly Cloudy BKN110 40 28     62% 33   30.34 30.35      
Feb 19 13:53 S 10 10 Clear CLR 41 27     57% 35   30.34 30.36      
Feb 19 12:53 S 14 10 Clear CLR 42 25     50% 35   30.38 30.39      
Feb 19 11:53 SSW 13 10 Clear CLR 40 25     55% 32   30.41 30.43      
Feb 19 10:53 SSW 9 10 Clear CLR 39 27     62% 33   30.47 30.49      
Feb 19 09:53 SSE 5 10 Clear CLR 34 24     67% 30   30.51 30.53      
Jun 11 16:53 SW 11 10 Clear CLR 91        %     29.77 29.77      
Jun 11 15:53 SW 15 10 Clear   90 53     29%   88 29.77 29.76      
Jun 11 12:53   10 Clear CLR 87 58     37%   86 29.8 29.79      
Jun 10 13:53 SW 8 10 Clear CLR 77 48     36%   76 29.92 29.92      
Jun 09 00:53 SSE 6 10 Clear CLR 53 42     66%     29.86 29.86      
Jun 08 11:53 5 10 Clear CLR 80        %     29.97 29.97      
Jun 05 22:53 E 9 10 Clear   51 44     77%     29.99 30      
Jun 05 18:53 E 9 10 Cloudy BKN015 OVC040 51 47     86%     29.99 29.99      
Notice The following observation data may not be complete
Jun 05 18:05   10 Cloudy SCT008 OVC015          %